Miscellaneous Local Product
Issued by NWS North Platte, NE

Home | Current Version | Previous Version | Graphics & Text | Print | Product List | Glossary On
Versions: 1 2 3 4 5 6 7 8 9 10 11 12 13 14 15 16 17 18 19 20 21 22 23 24 25 26 27 28 29 30 31 32 33 34 35 36 37 38 39 40 41 42 43 44 45 46 47 48 49 50
000
AXUS43 KLBF 010510
MISLBF


WESTERN AND NORTH CENTRAL NEBRASKA HOURLY WEATHER ROUNDUP
NATIONAL WEATHER SERVICE NORTH PLATTE NE
1200 AM CDT SAT AUG 01 2015

***STATIONS NOT REPORTING VARIABLES SUCH AS SKY/WEATHER OR
PRESSURE ARE PROVIDED BY THE NEBRASKA DEPARTMENT OF
ROADS...RAWS...AND APRS NETWORKS...AND ARE NOT UNDER
NATIONAL WEATHER SERVICE QUALITY CONTROL***

...OBSERVATIONS IN AND NEAR THE EASTERN PANHANDLE OF NEBRASKA...

CITY           SKY/WX    TMP DP  RH WIND       PRES   REMARKS
PINE RIDGE     CLEAR     69  53  56 E9        30.13S
CHADRON        PTCLDY    66  55  67 NE8       30.11S
ALLIANCE       CLEAR     64  56  75 S8        30.16S
SIDNEY         CLEAR     64  51  62 S7        30.21S
BIG SPRINGS      N/A     70  59  68 CALM        N/A
$$

...OBSERVATIONS IN NORTH CENTRAL NEBRASKA...

CITY           SKY/WX    TMP DP  RH WIND       PRES   REMARKS
VALENTINE      CLEAR     73  61  65 E8        30.13R
THEDFORD       PTCLDY    73  63  69 S13       30.16R
AINSWORTH      CLEAR     67  62  84 SE5       30.15R
O`NEILL        CLEAR     71  65  80 CALM      30.13R
ORD            CLEAR     65  63  93 CALM      30.11S
BROKEN BOW     CLEAR     70  58  65 S3        30.14S
SPRINGVIEW       N/A     70  63  79 CALM        N/A
CHAMBERS         N/A     66  60  82 CALM        N/A
EWING            N/A     66  63  91 CALM        N/A
$$

...OBSERVATIONS IN SOUTHWEST NEBRASKA AND FAR NORTHEAST COLORADO...

CITY           SKY/WX    TMP DP  RH WIND       PRES   REMARKS
WRAY           FAIR      76  56  51 S12G17    30.17F
IMPERIAL       CLEAR     70  58  65 SE3       30.15R
OGALLALA       CLEAR     71  62  73 E3        30.14S
NORTH PLATTE   CLEAR     69  59  70 E10       30.14S
MCCOOK         CLEAR     77  62  59 S5        30.11S
LEXINGTON      CLEAR     70  61  73 SE8       30.14S
PAXTON           N/A     71  64  78 E3          N/A
BRADY            N/A     67  60  79 CALM        N/A
CALLAWAY         N/A     65  62  89 SE6         N/A
$$

...NORTH PLATTE AREA...

CITY           SKY/WX    TMP DP  RH WIND       PRES   REMARKS
AIRPORT        CLEAR     69  59  70 E10       30.14S
DOWNTOWN         N/A     71  61  71 E3          N/A
SANDRIDGE        N/A     70  61  72 E3          N/A
HILLCREST        N/A     68  61  77 E12         N/A
$$

...SOME WEATHER OBSERVATIONS FROM AROUND THE REGION...

CITY           SKY/WX    TMP DP  RH WIND       PRES   REMARKS
DENVER         PTCLDY    70  51  51 S13       30.26S
LARAMIE        CLEAR     62  46  55 S12       30.35F
CHEYENNE       CLEAR     69  48  47 S10       30.29F
SCOTTSBLUFF    CLEAR     67  57  70 E7        30.16S
RAPID CITY     CLEAR     62  55  77 W3        30.13S
PIERRE         CLEAR     72  54  53 S3        30.05S
WINNER         FAIR      72  61  68 SE8       30.11R
SIOUX FALLS    CLEAR     72  62  71 SW6       30.07S
OMAHA          CLEAR     75  70  84 CALM      30.06R
GRAND ISLAND   PTCLDY    70  61  73 SW3       30.11S
KANSAS CITY    MOCLDY    74  68  81 S3        30.08R
WICHITA        PTCLDY    77  72  84 S7        30.09F
HAYS           CLEAR     73  61  64 SE6       30.12S
LIBERAL        MOCLDY    72  64  78 S6        30.18R
GOODLAND       CLEAR     71  58  63 S13       30.19S
$$



USA.gov is the U.S. government's official web portal to all federal, state and local government web resources and services.